STARLINK-3819, 52349

Orbit data source: Space-Track

STARLINK-3819, 52349 is a payload satellite owned by SpaceX/Seattle (US) in LEO that was launched on Fri, 29 Apr 2022 UTC via an FALCON 9 launch vehicle from the Air Force Eastern Test Range (AFETR). Payload-class satellites include a variety of spacecraft equipped with specific instruments for various scientific and technological missions. These include communications satellites like Starlink; space stations such as the ISS; scientific satellites like the Hubble; Earth observation satellites from companies like Planet Labs, Umbra, and HawkEye 360; GPS; miniature CubeSats for education and research; and military/defense satellites.

Loading next visibility...
Identifier
52349, 2022-045U
Orbit
LEO
Country
Flag of USUS
Related business
Manufacturer
SpaceX/Seattle
Mission
Operational Commercial Communications
Bus & Motor
STARLINK, Unknown motor
Mass
297 kg wet, ~275 kg dry
Launch date (UTC)
2022-04-29 (4 years ago)
Launch vehicle
FALCON 9
Launch site
Air Force Eastern Test Range (AFETR)
Object type
Payload
Rocket body
Debris
Shape & HBR
Box + 1 Pan, 10.1 m
Radar Cross Section
11.087 m², Large (>1 m²)

Expand to show TLE details & history
Last TLE update: 18 hours ago

TLE from 18 hours ago
0 STARLINK-3819
1 52349U 22045U   25348.92371680  .00002450  00000-0  17195-3 0  9991
2 52349  53.2157 219.6507 0001468  85.4352 274.6808 15.08839600202980
Epoch: 2025-12-14T22:10Z
TLE epoch observation values (Epoch: 2025-12-14T22:10:09.131Z)
Latitude
-0.00001°
Longitude
163.28298°
Altitude
540.559 km
Speed
7.593 km/s
True Right ascension
14h 38m 36s
True Declination
0° 00' 00"
Sunlit
Object was in daylight at epoch
Visualization orbit readout
Latitude
Unknown
Longitude
Unknown
Altitude
Unknown
Speed
Unknown
Apparent Right ascension
Unknown
Apparent Declination
Unknown
Sunlit
N/A
Visualization observer readout
Local Sidereal Time
15:08:55
Azimuth
Unknown
Elevation
Unknown
Doppler factor
Unknown
Orbital elements
Apogee altitude
541.005 km
Perigee altitude
538.974 km
Semi-major axis
6,918.127 km
Eccentricity
0.00015
Inclination
53.2157°
RAAN
219.6507°
Arg. of periapsis
85.4352°
True anomaly
274.66403°
Mean anomaly
274.6808°
Eccentric anomaly
274.67242°
Mean motion
3.7719 °/min
Orbital period
95.44 mins
BSTAR
0.00017195
Loading maneuver chart data...
Computing Atmospheric mass density...
Loading historical data...
Loading historical data...
Loading historical data...
Loading historical data...
Loading historical data...
Loading historical data...
Loading historical data...

Documentation

Showing up to 5 results
|